Location: ????????
(55.5667°N, 37.5833°E)
Time: 15:17:44
(UTC+00:00)

Cosmos 1850 Rocket - Pass Details

Date: 14 April 2026
Orbit: 750 x 780 km, 74.0° (Epoch: 17 May)

Event Time Altitude Azimuth Distance (km) Brightness Sun altitude
Rises 23:11:24 0° 329° (NNW) 3,232 7.7 -21.4°
Reaches altitude 10° 23:13:54 10° 322° (NW) 2,298 6.7 -21.2°
Maximum altitude 23:18:42 39° 254° (WSW) 1,121 4.5 -20.9°
Enters shadow 23:18:57 39° 247° (WSW) 1,125 4.5 -20.9°
